sat.trackr.live / text

‹ back to catalog

O3B MPOWER F5

NORAD 58346 · 2023-175A

PAYLOAD ACTIVE UNKNOWN

§ Identity

Operator
Country
O3B
Launch date
2023-11-12
Launch site
AFETR
Launch vehicle
Mass (kg)
RCS (m²)

Purposes: comms

External: N2YO · Heavens-Above · Gunter

§ Orbital elements

Epoch: 2026-05-20T17:21:51.906816Z

Period
287.93 min
Inclination
0.0469°
Eccentricity
0.0004726
Mean motion
5.00115437 rev/d
Perigee alt
8,059.1 km
Apogee alt
8,072.7 km
Semi-major
14,444.0 km
B*
0.0000e+0
RAAN
12.7092°
Arg perigee
60.9652°
Mean anomaly
286.3772°
Rev number
4,806

§ Raw data

O3B MPOWER F51 58346U 23175A   26140.72351744 -.00000023  00000+0  00000+0 0  99942 58346   0.0469  12.7092 0004726  60.9652 286.3772  5.00115437 48064

JSON: /api/v1/satellites/58346 · /tle

For live sub-satellite position, see the globe view (requires WebGL).

§ Visibility from observer

Set your observer location to see the next 7 days of passes ≥ 10°. The values pass through the URL so the page stays shareable.

No JS? Fill the form by hand. The geolocation button needs JavaScript.